STARLINK-1791 (46692 NORAD) Tracking and Keplerian Element Data
This shows tracking and keplerian element data for the satellite.
Feedback or suggestion? Click here.
Element | Value |
Catalog | 46692 |
Name | STARLINK-1791 |
Epoch Orbit | 1452 |
Epoch Day | 17.91667824 |
Epoch Year | 2021 |
RAAN | 41.7789 |
Inclination | 53.0568 |
Eccentricity | 0.0001515 |
Argument of Perigee | 66.7593 |
Mean Anonmoly | 307.5423 |
Mean Motion | 15.06367301 |
Decay Rate | 0.00042683 |
L1 | 1 46692U 20073Y 21017.91667824 .00042683 00000-0 28696-2 0 9999 |
L2 | 2 46692 53.0568 41.7789 0001515 66.7593 307.5423 15.06367301 14528 |
Live tracking and technical data element details for STARLINK-1791 (NORAD 46692). STARLINK-1791 can be tracked NOW for your location showing map with azimuth and elevation plus other details from your city location.
Track the satellite on the map from your city or location and see movement details for azimuth, elevation, latitude, longitude, range, height, and movement on the map or in text.
IsCatalogInMostPopularTable: catalog: 46692, numindb: 30
Update: records affected: 1
GetName: 46692 STARLINK-1791
Hit Count: updated at: Tue, 19 Jan 2021 01:55:51 GMT